DateTime,F1_A11,F1_S11,BsB_S11,BsG_S11,BsR_S11,BbsB_S11,BbsG_S11,BbsR_S11,BaB_A11,BaG_A11,BaR_A11,T_S11,U_S11,P_S11,T1_A11
2016-02-28T00:00:00Z,0000380,21000600,,,,,,,,,,23.4,00.0,0654.0,34.1
2016-02-28T00:01:00Z,0000380,21000600,,,,,,,,,,23.3,00.0,0654.0,34.1
2016-02-28T00:02:00Z,0000380,21000600,,,,,,,,,,23.3,00.0,0654.0,34.1
2016-02-28T00:03:00Z,0000380,61000600,,,,,,,,,,23.4,00.0,0654.0,34.1
2016-02-28T00:04:00Z,0000380,41000600,0002.10,0000.95,0000.42,0000.06,-000.06,-000.06,0000.16,0000.11,0000.09,23.4,00.0,0654.7,34.1
2016-02-28T00:05:00Z,0000380,01000600,0000.87,0000.30,0000.38,0000.00,-000.57,-000.10,0000.04,-000.00,0000.03,23.4,00.0,0654.8,34.1
2016-02-28T00:06:00Z,0000380,01000600,0000.02,0000.71,0000.20,0000.48,-000.54,0000.18,0000.02,0000.18,-000.15,23.5,00.0,0654.8,34.1
2016-02-28T00:07:00Z,0000380,01000600,0000.61,0001.01,0000.48,0000.27,0000.13,0000.13,-000.05,-000.12,0000.32,23.5,00.0,0654.7,34.1
2016-02-28T00:08:00Z,0000380,01000600,0000.10,0000.90,0000.61,-000.08,0000.25,0000.11,-000.02,0000.04,-000.10,23.5,00.0,0654.7,34.1
2016-02-28T00:09:00Z,0000380,01000600,-000.13,0001.06,0000.29,0000.26,0000.13,0000.13,0000.12,0000.18,-000.08,23.6,00.0,0654.7,34.1
2016-02-28T00:10:00Z,0000380,01000600,0000.24,0000.40,0000.14,0000.18,0000.05,-000.16,0000.16,-000.12,0000.08,23.6,00.0,0654.7,34.1
2016-02-28T00:11:00Z,0000380,01000600,0000.73,-000.08,0000.64,0000.38,-000.37,0000.11,-000.05,0000.04,0000.05,23.7,00.0,0654.7,34.1
2016-02-28T00:12:00Z,0000380,01000600,0000.16,0000.28,-000.19,-000.16,-000.13,-000.26,-000.09,0000.05,-000.12,23.7,00.0,0654.7,34.1
2016-02-28T00:13:00Z,0000380,01000600,0000.92,0000.15,0000.42,0000.13,-000.13,-000.10,0000.32,0000.15,0000.09,23.7,00.0,0654.7,34.1
2016-02-28T00:14:00Z,0000380,01000600,0000.66,0000.95,-000.25,0000.22,-000.13,-000.24,0000.03,0000.07,-000.13,23.7,00.0,0654.8,34.1
2016-02-28T00:15:00Z,0000380,01000600,0000.61,0000.41,0000.21,0000.46,0000.25,-000.03,0000.10,0000.03,0000.42,23.7,00.0,0654.8,34.1
2016-02-28T00:16:00Z,0000380,01000600,-000.19,0000.75,0000.42,-000.48,-000.13,0000.13,0000.06,0000.06,-000.03,23.7,00.0,0654.8,34.1
2016-02-28T00:17:00Z,0000380,01000600,0001.13,0000.66,0000.41,0000.35,0000.11,0000.06,-000.00,0000.18,0000.21,23.6,00.0,0654.8,34.1
2016-02-28T00:18:00Z,0000380,01000600,0000.93,-000.42,0000.54,0000.40,-000.03,-000.14,0000.10,-000.05,-000.33,23.5,00.0,0654.8,34.1
2016-02-28T00:19:00Z,0000380,01000600,-000.87,0000.98,-000.35,0000.32,0000.08,0000.10,-000.10,-000.01,0000.15,23.6,00.0,0654.7,34.1
2016-02-28T00:20:00Z,0000380,01000600,0001.15,0000.30,-000.12,0000.46,-000.24,0000.05,0000.12,-000.09,0000.03,23.6,00.0,0654.7,34.1
2016-02-28T00:21:00Z,0000380,01000600,0001.07,0001.29,0000.08,0000.48,-000.33,0000.00,0000.06,0000.26,0000.30,23.7,00.0,0654.7,34.1
2016-02-28T00:22:00Z,0000380,01000600,0000.26,0000.11,0000.40,0000.80,-000.10,0000.08,0000.14,0000.16,0000.16,23.7,00.0,0654.7,34.1
2016-02-28T00:23:00Z,0000380,01000600,0001.12,0001.15,-000.15,0000.16,0000.22,-000.05,0000.03,-000.12,-000.13,23.7,00.0,0654.7,34.1
2016-02-28T00:24:00Z,0000380,01000600,0001.31,0000.63,0000.67,0000.32,-000.37,0000.16,0000.20,0000.04,0000.02,23.7,00.0,0654.7,34.1
2016-02-28T00:25:00Z,0000380,01000600,0001.72,0000.73,0000.19,0000.26,-000.35,0000.05,0000.06,0000.24,0000.20,23.7,00.0,0654.7,34.1
2016-02-28T00:26:00Z,0000380,01000600,0001.17,0001.00,0000.26,0000.19,-000.33,-000.16,0000.13,0000.06,-000.12,23.7,00.0,0654.7,34.1
2016-02-28T00:27:00Z,0000380,01000600,0001.05,0000.83,0000.34,0000.67,0000.22,-000.05,-000.16,-000.02,0000.02,23.7,00.0,0654.7,34.1
2016-02-28T00:28:00Z,0000380,01000600,0000.02,0001.17,0000.58,0000.05,-000.37,0000.30,0000.23,-000.08,0000.19,23.6,00.0,0654.7,34.1
2016-02-28T00:29:00Z,0000380,01000600,0001.01,0000.74,0000.39,0000.69,-000.08,-000.06,-000.12,0000.33,-000.11,23.6,00.0,0654.7,34.1
2016-02-28T00:30:00Z,0000380,01000600,0001.07,0001.04,0000.53,0001.07,0000.10,-000.18,0000.31,0000.09,0000.13,23.6,00.0,0654.7,34.0
2016-02-28T00:31:00Z,0000380,01000600,0000.70,0000.77,-000.14,-000.16,-000.08,0000.03,-000.02,-000.20,-000.25,23.5,00.0,0654.8,34.0
2016-02-28T00:32:00Z,0000380,01000600,0000.87,0001.84,0000.12,0000.22,-000.72,-000.02,-000.06,0000.23,0000.18,23.5,00.0,0654.8,34.0
2016-02-28T00:33:00Z,0000380,01000600,0000.22,0000.85,0000.36,0000.59,-000.54,-000.10,0000.14,-000.01,0000.17,23.5,00.0,0654.8,34.0
2016-02-28T00:34:00Z,0000380,01000600,0000.48,0001.58,0000.39,0000.30,-000.29,-000.03,-000.03,0000.01,-000.32,23.5,00.0,0654.8,34.0
2016-02-28T00:35:00Z,0000380,01000600,0000.72,0000.62,0000.62,0000.03,-000.33,0000.29,0000.11,-000.07,0000.34,23.5,00.0,0654.7,34.0
2016-02-28T00:36:00Z,0000380,01000600,0001.60,0000.88,-000.24,0000.16,-000.43,-000.24,0000.08,0000.10,-000.12,23.5,00.0,0654.8,34.0
2016-02-28T00:37:00Z,0000380,01000600,0000.91,0000.77,0000.35,0000.38,-000.08,-000.03,-000.11,0000.12,0000.17,23.5,00.0,0654.8,34.0
2016-02-28T00:38:00Z,0000380,01000600,0000.45,0000.13,0000.28,-000.40,-000.41,-000.19,0000.23,0000.01,0000.14,23.5,00.0,0654.7,34.0
2016-02-28T00:39:00Z,0000380,01000600,0000.40,0001.27,0000.68,0000.24,0000.08,0000.24,0000.03,0000.03,0000.30,23.5,00.0,0654.8,34.0
2016-02-28T00:40:00Z,0000380,01000600,0000.80,0000.71,0000.48,0000.11,-000.11,-000.10,0000.20,0000.05,-000.23,23.5,00.0,0654.7,34.0
2016-02-28T00:41:00Z,0000380,01000600,0000.61,0000.52,0000.12,-000.05,-000.25,0000.24,-000.10,0000.10,-000.18,23.5,00.0,0654.7,34.0
2016-02-28T00:42:00Z,0000380,01000600,0000.26,0000.97,0000.95,0000.50,-000.21,-000.05,0000.01,0000.03,0000.04,23.5,00.0,0654.8,34.0
2016-02-28T00:43:00Z,0000380,01000600,0001.00,0000.68,-000.03,-000.05,-000.29,-000.13,0000.06,0000.07,0000.07,23.4,00.0,0654.7,34.0
2016-02-28T00:44:00Z,0000380,01000600,0000.17,0000.40,0000.29,-000.14,-000.22,-000.16,0000.01,0000.11,0000.29,23.4,00.0,0654.7,34.0
2016-02-28T00:45:00Z,0000380,01000600,0000.00,0000.93,-000.11,0000.29,-000.10,0000.11,0000.04,0000.04,-000.02,23.3,00.0,0654.7,34.0
2016-02-28T00:46:00Z,0000380,01000600,0000.90,0000.75,0000.34,-000.05,0000.14,-000.14,0000.23,0000.01,-000.02,23.3,00.0,0654.8,34.0
2016-02-28T00:47:00Z,0000380,01000600,0000.30,0000.44,-000.27,0000.14,-000.11,-000.03,-000.06,0000.02,-000.07,23.3,00.0,0654.8,34.0
2016-02-28T00:48:00Z,0000380,01000600,-000.47,0000.94,0000.07,-000.24,0000.24,-000.10,-000.08,-000.00,0000.12,23.3,00.0,0654.7,34.0
2016-02-28T00:49:00Z,0000380,01000600,0001.37,0000.52,0000.08,0000.11,-000.29,0000.05,0000.33,0000.16,0000.03,23.3,00.0,0654.7,34.0
2016-02-28T00:50:00Z,0000380,01000600,0000.68,0000.88,0000.07,0000.21,-000.30,0000.10,-000.05,-000.11,0000.14,23.3,00.0,0654.7,34.0
2016-02-28T00:51:00Z,0000380,01000600,0000.48,0000.52,0000.11,0000.43,-000.22,0000.18,0000.11,-000.02,-000.20,23.3,00.0,0654.7,34.0
2016-02-28T00:52:00Z,0000380,01000600,0001.87,0000.38,0000.10,-000.64,-000.10,0000.22,-000.00,-000.01,-000.27,23.3,00.0,0654.7,34.0
2016-02-28T00:53:00Z,0000380,01000600,-000.10,0000.83,0000.26,0000.32,-000.17,0000.06,-000.04,0000.12,0000.41,23.3,00.0,0654.7,34.0
2016-02-28T00:54:00Z,0000380,01000600,0001.69,0000.86,0000.25,-000.22,-000.24,-000.27,0000.17,0000.16,0000.08,23.4,00.0,0654.7,34.0
2016-02-28T00:55:00Z,0000380,01000600,0000.57,0000.95,0000.11,0000.18,-000.35,-000.19,0000.07,-000.00,0000.07,23.4,00.0,0654.7,34.0
2016-02-28T00:56:00Z,0000380,01000600,0001.23,0000.10,0000.45,-000.08,0000.11,-000.06,0000.11,0000.05,0000.10,23.5,00.0,0654.7,34.0
2016-02-28T00:57:00Z,0000380,41000600,,,,,,,,,,,,0654.7,34.0
2016-02-28T00:58:00Z,0000380,61000600,,,,,,,,,,23.3,00.0,0654.0,34.0
2016-02-28T00:59:00Z,0000380,21000600,,,,,,,,,,23.3,00.0,0653.9,34.0
2016-02-28T01:00:00Z,0000380,21000600,,,,,,,,,,23.3,00.0,0653.9,34.1
2016-02-28T01:01:00Z,0000380,21000600,,,,,,,,,,23.3,00.0,0653.9,34.1
2016-02-28T01:02:00Z,0000380,21000600,,,,,,,,,,23.3,00.0,0653.9,34.1
2016-02-28T01:03:00Z,0000380,61000600,,,,,,,,,,23.3,00.0,0653.9,34.1
2016-02-28T01:04:00Z,0000380,41000600,0000.69,0000.81,0000.08,-000.21,-000.11,0000.06,0000.06,-000.02,0000.37,23.4,00.0,0654.7,34.1
2016-02-28T01:05:00Z,0000380,01000600,0001.89,0000.71,0000.44,0000.21,0000.16,0000.11,0000.10,0000.01,-000.23,23.4,00.0,0654.7,34.1
2016-02-28T01:06:00Z,0000380,01000600,-000.68,0000.76,-000.03,-000.75,0000.21,0000.24,-000.04,-000.08,0000.14,23.4,00.0,0654.7,34.1
2016-02-28T01:07:00Z,0000380,01000600,0000.19,0000.44,0000.35,0000.40,-000.11,-000.22,0000.11,0000.18,0000.22,23.4,00.0,0654.7,34.1
2016-02-28T01:08:00Z,0000380,01000600,0000.82,0000.71,0000.28,-000.42,0000.06,0000.03,0000.20,-000.04,-000.14,23.5,00.0,0654.7,34.1
2016-02-28T01:09:00Z,0000380,01000600,0000.64,0000.52,0000.41,0000.11,-000.13,0000.14,-000.08,0000.22,0000.15,23.5,00.0,0654.7,34.1
2016-02-28T01:10:00Z,0000380,01000600,0000.57,0000.65,0000.45,-000.22,0000.22,0000.05,-000.01,0000.06,0000.14,23.5,00.0,0654.7,34.1
2016-02-28T01:11:00Z,0000380,01000600,0000.55,0000.24,0000.23,-000.46,-000.33,0000.37,0000.16,-000.08,-000.09,23.5,00.0,0654.7,34.1
2016-02-28T01:12:00Z,0000380,01000600,0001.33,0000.32,0000.36,0000.29,0000.05,0000.16,0000.09,0000.14,0000.35,23.5,00.0,0654.7,34.1
2016-02-28T01:13:00Z,0000380,01000600,0000.39,0000.60,0000.30,-000.66,0000.43,0000.30,0000.13,0000.26,-000.11,23.5,00.0,0654.6,34.1
2016-02-28T01:14:00Z,0000380,01000600,0000.85,0000.55,0000.05,0000.37,-000.14,0000.00,-000.08,-000.22,0000.13,23.5,00.0,0654.6,34.1
2016-02-28T01:15:00Z,0000380,01000600,0000.15,0000.08,-000.14,-000.62,0000.02,-000.19,0000.14,0000.14,0000.12,23.4,00.0,0654.6,34.1
2016-02-28T01:16:00Z,0000380,01000600,-000.02,0000.90,0000.56,0000.10,0000.45,-000.03,0000.06,0000.00,-000.03,23.4,00.0,0654.7,34.1
2016-02-28T01:17:00Z,0000380,01000600,-000.17,0001.54,0000.13,0000.54,0000.41,-000.08,0000.11,0000.24,-000.29,23.3,00.0,0654.7,34.1
2016-02-28T01:18:00Z,0000380,01000600,-000.07,0000.08,0000.41,-000.34,0000.52,0000.29,0000.09,-000.10,0000.10,23.3,00.0,0654.7,34.1
2016-02-28T01:19:00Z,0000380,01000600,-000.10,0000.09,0000.43,0000.46,0000.24,0000.30,0000.01,0000.05,-000.06,23.3,00.0,0654.7,34.1
2016-02-28T01:20:00Z,0000380,01000600,0000.54,0000.26,0000.02,-000.29,0000.25,-000.11,0000.05,0000.06,-000.03,23.3,00.0,0654.7,34.1
2016-02-28T01:21:00Z,0000380,01000600,0000.16,0000.34,0000.18,-000.22,0000.41,-000.13,-000.06,0000.04,0000.38,23.3,00.0,0654.7,34.1
2016-02-28T01:22:00Z,0000380,01000600,0001.52,0000.93,-000.18,-000.78,0000.25,0000.06,0000.22,0000.18,-000.27,23.4,00.0,0654.7,34.1
2016-02-28T01:23:00Z,0000380,01000600,0001.52,0000.73,-000.52,-000.38,0000.18,-000.27,0000.01,-000.06,0000.37,23.4,00.0,0654.6,34.1
2016-02-28T01:24:00Z,0000380,01000600,-000.19,0001.64,0000.00,-000.75,-000.13,0000.22,-000.02,-000.05,-000.55,23.5,00.0,0654.6,34.1
2016-02-28T01:25:00Z,0000380,01000600,0001.24,0000.91,0000.26,0000.00,-000.02,0000.13,0000.20,0000.14,0000.39,23.5,00.0,0654.6,34.1
2016-02-28T01:26:00Z,0000380,01000600,0001.05,0000.77,0000.11,-000.27,-000.03,-000.03,0000.05,0000.19,0000.21,23.5,00.0,0654.6,34.1
2016-02-28T01:27:00Z,0000380,01000600,-000.28,0000.46,-000.06,0000.24,0000.18,0000.14,0000.20,0000.08,0000.26,23.4,00.0,0654.6,34.1
2016-02-28T01:28:00Z,0000380,01000600,0000.48,0000.58,0000.20,-000.67,0000.40,-000.02,0000.06,0000.04,-000.32,23.4,00.0,0654.7,34.1
2016-02-28T01:29:00Z,0000380,01000600,0001.75,0000.67,0000.47,0000.48,0000.13,-000.03,0000.19,-000.04,0000.22,23.3,00.0,0654.7,34.1
2016-02-28T01:30:00Z,0000380,01000600,0000.78,0000.75,0000.25,0000.14,-000.03,-000.22,-000.05,0000.17,-000.07,23.3,00.0,0654.7,34.0
2016-02-28T01:31:00Z,0000380,01000600,0001.02,0000.59,-000.06,-000.65,0000.46,0000.06,0000.05,-000.01,0000.05,23.3,00.0,0654.7,34.0
2016-02-28T01:32:00Z,0000380,01000600,0000.36,0000.67,0000.51,-000.05,0000.11,-000.06,0000.01,0000.02,0000.03,23.2,00.0,0654.7,34.0
2016-02-28T01:33:00Z,0000380,01000600,0000.45,0000.31,-000.06,-000.43,-000.13,0000.19,0000.14,0000.05,0000.10,23.2,00.0,0654.7,34.0
2016-02-28T01:34:00Z,0000380,01000600,0001.11,0000.72,-000.07,0000.05,0000.02,-000.05,-000.20,-000.03,-000.25,23.2,00.0,0654.6,34.0
2016-02-28T01:35:00Z,0000380,01000600,0001.25,0000.92,0000.16,0000.13,0000.19,-000.02,0000.01,0000.18,0000.22,23.2,00.0,0654.6,34.0
2016-02-28T01:36:00Z,0000380,01000600,0001.14,0000.02,0000.07,-000.18,0000.17,0000.27,0000.12,-000.07,0000.24,23.3,00.0,0654.6,34.0
2016-02-28T01:37:00Z,0000380,01000600,0000.64,0000.00,0000.53,-000.02,0000.13,0000.05,0000.02,0000.03,-000.14,23.3,00.0,0654.6,34.0
2016-02-28T01:38:00Z,0000380,01000600,-000.11,0000.49,-000.08,0000.27,0000.19,0000.14,0000.05,0000.00,-000.13,23.3,00.0,0654.6,34.0
2016-02-28T01:39:00Z,0000380,01000600,0000.98,0000.27,0000.25,-001.04,-000.06,0000.00,0000.19,0000.25,0000.45,23.3,00.0,0654.6,34.0
2016-02-28T01:40:00Z,0000380,01000600,0000.53,0000.72,0000.52,-000.03,-000.29,-000.08,-000.18,-000.11,-000.23,23.3,00.0,0654.6,34.0
2016-02-28T01:41:00Z,0000380,01000600,0000.04,0001.40,0000.25,0000.02,-000.08,0000.08,0000.13,-000.08,0000.05,23.3,00.0,0654.6,34.0
2016-02-28T01:42:00Z,0000380,01000600,0001.13,0000.21,0000.07,-000.05,0000.40,0000.10,0000.10,0000.27,-000.08,23.3,00.0,0654.6,34.0
2016-02-28T01:43:00Z,0000380,01000600,0000.78,0000.79,0000.05,-000.30,0000.06,-000.21,0000.21,0000.00,0000.22,23.3,00.0,0654.6,34.0
2016-02-28T01:44:00Z,0000380,01000600,0000.50,0000.76,0000.32,-000.02,-000.56,0000.32,0000.03,0000.07,-000.14,23.3,00.0,0654.6,34.0
2016-02-28T01:45:00Z,0000380,01000600,0001.12,0000.85,0000.21,-000.13,0000.00,0000.05,0000.14,0000.01,-000.11,23.3,00.0,0654.6,34.1
2016-02-28T01:46:00Z,0000380,01000600,0001.10,0000.69,-000.04,-000.27,-000.08,-000.14,-000.26,-000.08,0000.46,23.2,00.0,0654.6,34.1
2016-02-28T01:47:00Z,0000380,01000600,0000.80,0000.79,0000.36,-000.18,-000.10,0000.59,0000.29,0000.26,-000.00,23.2,00.0,0654.6,34.1
2016-02-28T01:48:00Z,0000380,01000600,0001.00,0000.64,0000.06,-000.83,0000.30,-000.21,0000.18,0000.08,-000.34,23.2,00.0,0654.6,34.1
2016-02-28T01:49:00Z,0000380,01000600,0000.10,0000.98,-000.01,-000.91,0000.13,0000.03,-000.30,-000.09,0000.17,23.2,00.0,0654.6,34.1
2016-02-28T01:50:00Z,0000380,01000600,0000.46,0000.75,0000.07,-000.42,-000.14,0000.02,0000.08,0000.01,0000.07,23.2,00.0,0654.6,34.1
2016-02-28T01:51:00Z,0000380,01000600,-001.62,0000.70,0000.21,0000.26,0000.67,-000.08,0000.05,0000.15,0000.29,23.2,00.0,0654.6,34.1
2016-02-28T01:52:00Z,0000380,01000600,0000.87,0000.53,0000.10,-000.54,0000.13,0000.00,0000.24,0000.01,-000.10,23.2,00.0,0654.5,34.1
2016-02-28T01:53:00Z,0000380,01000600,0000.99,0000.28,-000.15,-000.02,0000.22,0000.10,-000.08,-000.01,0000.00,23.2,00.0,0654.5,34.1
2016-02-28T01:54:00Z,0000380,01000600,0001.24,0000.65,0000.14,-000.64,0000.10,0000.22,0000.15,0000.22,-000.01,23.2,00.0,0654.5,34.1
2016-02-28T01:55:00Z,0000380,01000600,0000.43,0000.28,0000.38,0000.21,-000.21,0000.21,0000.06,-000.11,0000.05,23.3,00.0,0654.6,34.1
2016-02-28T01:56:00Z,0000380,01000600,0001.19,0000.82,0000.22,-000.05,-000.03,0000.18,0000.14,0000.08,0000.05,23.2,00.0,0654.6,34.1
2016-02-28T01:57:00Z,0000380,41000600,,,,,,,,,,,,0654.7,34.1
2016-02-28T01:58:00Z,0000380,61000600,,,,,,,,,,23.0,00.0,0653.8,34.1
2016-02-28T01:59:00Z,0000380,21000600,,,,,,,,,,23.0,00.0,0653.8,34.1
2016-02-28T02:00:00Z,0000380,21000600,,,,,,,,,,23.0,00.0,0653.8,34.0
2016-02-28T02:01:00Z,0000380,21000600,,,,,,,,,,23.0,00.0,0653.8,34.0
2016-02-28T02:02:00Z,0000380,21000600,,,,,,,,,,23.0,00.0,0653.8,34.0
2016-02-28T02:03:00Z,0000380,61000600,,,,,,,,,,23.1,00.0,0653.8,34.0
2016-02-28T02:04:00Z,0000380,41000600,0001.04,0000.98,0000.34,0000.69,0000.46,0000.08,0000.11,0000.08,0000.01,23.0,00.0,0654.6,34.0
2016-02-28T02:05:00Z,0000380,01000600,0001.20,0000.58,0000.23,0000.06,0000.48,-000.11,0000.05,-000.06,0000.03,23.0,00.0,0654.6,34.0
2016-02-28T02:06:00Z,0000380,01000600,0000.22,0000.71,0000.40,0000.00,0000.38,0000.10,0000.11,0000.01,0000.01,23.1,00.0,0654.6,34.0
2016-02-28T02:07:00Z,0000380,01000600,0000.27,0000.05,-000.02,0000.38,0000.60,-000.19,-000.02,0000.04,-000.12,23.1,00.0,0654.6,34.0
2016-02-28T02:08:00Z,0000380,01000600,0001.18,0000.82,0000.41,0000.10,0000.52,-000.29,-000.02,0000.12,0000.43,23.1,00.0,0654.6,34.0
2016-02-28T02:09:00Z,0000380,01000600,0000.33,0000.32,0000.05,0000.22,-000.19,0000.18,-000.01,-000.13,-000.12,23.2,00.0,0654.7,34.0
2016-02-28T02:10:00Z,0000380,01000600,-000.69,0000.66,0000.00,-000.14,-000.11,-000.11,0000.12,0000.18,-000.16,23.2,00.0,0654.6,34.0
2016-02-28T02:11:00Z,0000380,01000600,0000.42,0000.03,-000.21,-000.05,0000.21,-000.19,0000.03,0000.13,0000.17,23.2,00.0,0654.6,34.0
2016-02-28T02:12:00Z,0000380,01000600,0000.09,0000.44,0000.18,0000.05,0000.03,0000.08,0000.31,0000.07,0000.24,23.2,00.0,0654.7,34.0
2016-02-28T02:13:00Z,0000380,01000600,0000.33,0000.66,0000.41,0000.69,0000.10,0000.56,-000.05,-000.05,-000.29,23.2,00.0,0654.6,34.0
2016-02-28T02:14:00Z,0000380,01000600,0000.58,0000.63,0000.43,0000.00,0000.43,-000.46,0000.21,0000.21,0000.18,23.1,00.0,0654.6,34.0
2016-02-28T02:15:00Z,0000380,01000600,0000.25,0000.27,0000.21,0000.22,0000.35,0000.02,-000.14,-000.01,-000.00,23.1,00.0,0654.6,34.0
2016-02-28T02:16:00Z,0000380,01000600,-001.00,0000.54,0000.21,-000.34,0000.14,0000.02,0000.12,0000.14,0000.37,23.1,00.0,0654.6,34.0
2016-02-28T02:17:00Z,0000380,01000600,0000.68,0001.04,-000.06,0000.21,0000.17,0000.10,0000.11,0000.08,-000.18,23.0,00.0,0654.6,34.0
2016-02-28T02:18:00Z,0000380,01000600,0000.52,0000.45,0000.03,0000.26,-000.17,-000.48,-000.01,0000.17,-000.06,23.0,00.0,0654.7,34.0
2016-02-28T02:19:00Z,0000380,01000600,0001.02,0000.78,0000.00,0000.38,0000.27,0000.16,0000.06,-000.13,0000.22,23.0,00.0,0654.6,34.0
2016-02-28T02:20:00Z,0000380,01000600,0000.54,0000.90,0000.13,0000.32,0000.24,0000.06,0000.09,0000.02,0000.09,23.0,00.0,0654.6,34.0
2016-02-28T02:21:00Z,0000380,01000600,0000.99,0000.27,0000.59,0000.21,-000.02,0000.34,0000.17,0000.05,0000.16,23.1,00.0,0654.6,34.0
2016-02-28T02:22:00Z,0000380,01000600,0000.62,0000.73,-000.02,0000.40,0000.30,-000.05,-000.10,0000.15,-000.03,23.1,00.0,0654.6,34.0
2016-02-28T02:23:00Z,0000380,01000600,-000.37,0000.43,0000.31,0000.08,0000.03,-000.05,0000.07,-000.02,-000.38,23.1,00.0,0654.5,34.0
2016-02-28T02:24:00Z,0000380,01000600,0000.25,0000.68,-000.10,0000.03,0000.37,0000.13,0000.10,0000.03,0000.28,23.2,00.0,0654.6,34.0
2016-02-28T02:25:00Z,0000380,01000600,0000.58,0000.88,0000.42,0000.02,0000.19,0000.06,0000.22,0000.15,-000.09,23.1,00.0,0654.6,34.0
2016-02-28T02:26:00Z,0000380,01000600,0000.00,0000.35,0000.45,-000.08,0000.57,0000.18,-000.04,-000.03,0000.13,23.1,00.0,0654.5,34.0
2016-02-28T02:27:00Z,0000380,01000600,0001.29,0000.45,0000.46,-000.34,0000.29,0000.30,0000.15,0000.13,0000.02,23.1,00.0,0654.5,34.0
2016-02-28T02:28:00Z,0000380,01000600,0001.04,0000.26,0000.46,-000.21,0000.52,0000.13,-000.18,0000.12,0000.21,23.1,00.0,0654.5,34.0
2016-02-28T02:29:00Z,0000380,01000600,-000.16,0000.38,0000.22,0000.62,0000.40,0000.35,0000.40,0000.02,0000.05,23.0,00.0,0654.5,34.0
2016-02-28T02:30:00Z,0000380,01000600,0000.70,0000.28,0000.16,-000.18,0000.14,-000.02,-000.19,-000.03,-000.04,23.0,00.0,0654.5,34.0
2016-02-28T02:31:00Z,0000380,01000600,0000.80,0001.26,0000.17,0000.11,0000.17,0000.16,0000.26,0000.09,-000.03,23.0,00.0,0654.5,34.0
2016-02-28T02:32:00Z,0000380,01000600,0000.46,0000.97,0000.35,0000.22,0000.16,0000.00,-000.11,-000.02,0000.26,23.0,00.0,0654.5,34.0
2016-02-28T02:33:00Z,0000380,01000600,-000.18,0000.36,0000.75,0000.32,0000.68,0000.11,0000.24,0000.15,-000.18,23.0,00.0,0654.5,34.0
2016-02-28T02:34:00Z,0000380,01000600,0000.23,0001.40,0000.47,0000.37,0000.43,-000.11,-000.34,-000.09,-000.21,23.0,00.0,0654.5,34.0
2016-02-28T02:35:00Z,0000380,01000600,0001.21,0000.77,0000.15,-000.29,0000.35,0000.18,0000.25,-000.07,0000.15,23.0,00.0,0654.5,34.0
2016-02-28T02:36:00Z,0000380,01000600,0001.06,0000.78,0000.37,-000.03,0000.54,0000.46,-000.01,0000.22,0000.22,23.0,00.0,0654.4,34.0
2016-02-28T02:37:00Z,0000380,01000600,0001.30,0001.15,0000.46,0000.26,0000.24,-000.05,0000.25,-000.02,0000.07,23.0,00.0,0654.4,34.0
2016-02-28T02:38:00Z,0000380,01000600,0001.32,0000.85,0000.13,-000.22,0000.27,-000.02,-000.09,0000.03,-000.10,23.0,00.0,0654.4,34.0
2016-02-28T02:39:00Z,0000380,01000600,0000.87,0000.20,0000.47,0000.35,0000.54,0000.11,0000.13,-000.03,-000.04,23.0,00.0,0654.4,34.0
2016-02-28T02:40:00Z,0000380,01000600,0001.51,0000.89,0000.29,-000.02,0000.03,0000.35,0000.13,0000.01,0000.07,23.1,00.0,0654.4,34.0
2016-02-28T02:41:00Z,0000380,01000600,0000.98,0001.06,0000.42,0000.18,0000.38,0000.10,0000.20,0000.23,0000.12,23.1,00.0,0654.4,34.0
2016-02-28T02:42:00Z,0000380,01000600,0000.33,0000.85,0000.32,-000.38,0000.06,0000.19,-000.01,0000.05,0000.08,23.0,00.0,0654.4,34.0
2016-02-28T02:43:00Z,0000380,01000600,0000.73,0001.03,0000.10,0000.22,0000.22,0000.27,-000.10,0000.08,0000.04,23.0,00.0,0654.4,34.0
2016-02-28T02:44:00Z,0000380,01000600,0000.00,0000.73,0000.28,-000.40,0000.14,0000.22,0000.27,0000.11,0000.16,23.0,00.0,0654.4,34.0
2016-02-28T02:45:00Z,0000380,01000600,0000.47,0000.17,0000.31,0000.08,0000.25,-000.05,-000.08,-000.09,-000.07,23.0,00.0,0654.3,34.0
2016-02-28T02:46:00Z,0000380,01000600,0000.86,0000.46,0000.29,0000.08,0000.68,-000.08,0000.14,0000.02,-000.03,23.0,00.0,0654.3,34.0
2016-02-28T02:47:00Z,0000380,01000600,0000.17,0001.10,0000.32,0000.65,-000.35,0000.43,-000.14,0000.17,-000.00,22.9,00.0,0654.3,34.0
2016-02-28T02:48:00Z,0000380,01000600,0000.24,0000.52,0000.05,0000.42,-000.32,-000.30,0000.04,0000.05,0000.04,22.9,00.0,0654.3,34.0
2016-02-28T02:49:00Z,0000380,01000600,0001.19,0000.94,0000.36,0000.10,0000.30,0000.29,0000.14,-000.28,0000.16,22.9,00.0,0654.2,34.0
2016-02-28T02:50:00Z,0000380,01000600,0001.24,0000.26,0000.05,0000.43,0000.49,-000.13,0000.02,0000.25,-000.28,22.9,00.0,0654.2,34.0
2016-02-28T02:51:00Z,0000380,01000600,0001.37,0000.28,0000.03,0000.19,0000.13,0000.27,0000.01,-000.01,0000.09,23.0,00.0,0654.1,34.0
2016-02-28T02:52:00Z,0000380,01000600,0001.06,0000.80,0000.56,-000.48,0000.48,-000.11,0000.04,0000.12,0000.24,23.0,00.0,0654.1,34.0
2016-02-28T02:53:00Z,0000380,01000600,0000.59,0000.38,0000.05,0000.02,0000.08,0000.06,0000.15,-000.13,0000.03,23.0,00.0,0654.1,34.0
2016-02-28T02:54:00Z,0000380,01000600,-001.55,0001.40,0000.02,-000.13,0000.35,0000.50,-000.07,-000.08,-000.20,23.0,00.0,0654.2,34.0
2016-02-28T02:55:00Z,0000380,01000600,-000.71,0000.89,0000.37,-000.19,0000.35,-000.24,0000.16,0000.32,0000.16,23.0,00.0,0654.1,34.0
2016-02-28T02:56:00Z,0000380,01000600,0000.95,0000.74,0000.29,0000.30,0000.48,-000.26,-000.08,-000.02,-000.02,23.0,00.0,0654.2,34.0
2016-02-28T02:57:00Z,0000380,41000600,,,,,,,,,,,,0654.0,34.0
2016-02-28T02:58:00Z,0000380,61000600,,,,,,,,,,22.9,00.0,0653.4,34.0
2016-02-28T02:59:00Z,0000380,21000600,,,,,,,,,,22.8,00.0,0653.4,34.0
2016-02-28T03:00:00Z,0000380,21000600,,,,,,,,,,22.8,00.0,0653.4,34.0
2016-02-28T03:01:00Z,0000380,21000600,,,,,,,,,,22.8,00.0,0653.4,34.0
2016-02-28T03:02:00Z,0000380,21000600,,,,,,,,,,22.8,00.0,0653.4,34.0
2016-02-28T03:03:00Z,0000380,61000600,,,,,,,,,,22.9,00.0,0653.4,34.0
2016-02-28T03:04:00Z,0000380,41000600,0001.39,0000.86,0000.05,0000.37,0000.32,-000.14,-000.12,-000.16,-000.18,22.9,00.0,0654.1,34.0
2016-02-28T03:05:00Z,0000380,01000600,0001.43,0000.58,0000.00,0000.85,0000.24,-000.24,-000.02,0000.01,0000.29,22.8,00.0,0654.1,34.0
2016-02-28T03:06:00Z,0000380,01000600,0001.19,0000.63,0000.01,0000.27,-000.10,-000.02,0000.05,-000.15,-000.09,22.8,00.0,0654.1,34.0
2016-02-28T03:07:00Z,0000380,01000600,0000.52,0000.42,0000.34,0000.16,0000.08,-000.19,0000.12,0000.27,0000.07,22.9,00.0,0654.1,34.0
2016-02-28T03:08:00Z,0000380,01000600,0000.71,0000.29,0000.55,0000.45,0000.35,0000.00,0000.09,-000.11,-000.19,22.9,00.0,0654.1,34.0
2016-02-28T03:09:00Z,0000380,01000600,0000.68,0000.53,0000.12,0000.48,-000.06,-000.22,0000.03,0000.13,0000.30,22.9,00.0,0654.1,34.0
2016-02-28T03:10:00Z,0000380,01000600,-000.60,0000.33,-000.02,0000.57,-000.06,-000.18,0000.23,-000.01,-000.00,23.0,00.0,0654.1,34.0
2016-02-28T03:11:00Z,0000380,01000600,0000.81,0000.23,0000.34,0000.80,0000.05,-000.29,0000.12,0000.17,-000.24,23.0,00.0,0654.1,34.0
2016-02-28T03:12:00Z,0000380,01000600,0000.40,-000.07,0000.14,-000.27,0000.00,-000.14,0000.01,0000.05,0000.66,23.0,00.0,0654.1,34.0